ATLAS 5 CENTAUR DEB, 43973

Orbit data source: Space-Track

ATLAS 5 CENTAUR DEB, 43973 is space debris in HEO originally from a launch on Wed, 17 Sep 2014 UTC launched from the Air Force Eastern Test Range (AFETR). Debris objects in space refer to the collection of defunct objects orbiting the Earth. Examples of debris include non-operational satellites, rocket bodies, and fragments generated from explosions, collisions, or faulty payload assembly.

Loading next visibility...
Identifier
43973, 2014-055AC
Orbit
HEO
Country
Flag of USUS
Related business
Flag of USUnited Launch Alliance/Lockheed Martin (US)
Manufacturer
Unknown
Mission
Spacecraft
Bus & Motor
Unknown
Mass
Unknown
Launch date (UTC)
2014-09-17 (11 years ago)
Launch vehicle
Unknown
Launch site
Air Force Eastern Test Range (AFETR)
Object type
Payload
Rocket body
Debris
Shape & HBR
Unknown shape, 1.1 m
Radar Cross Section
Small (<0.1 m²)

Expand to show TLE details & history
Last TLE update: 1 day ago

TLE from 1 day ago
0 ATLAS 5 CENTAUR DEB
1 43973U 14055AC  25297.63726982  .00000017  00000-0  00000-0 0  9997
2 43973  20.7426 132.9157 5010592 190.7777 152.3110  1.92512818 50327
Epoch: 2025-10-24T15:17Z
TLE epoch observation values (Epoch: 2025-10-24T15:17:40.112Z)
Latitude
-0.00001°
Longitude
-129.76841°
Altitude
33,852.877 km
Speed
2.283 km/s
True Right ascension
08h 51m 42s
True Declination
0° 00' 00"
Sunlit
Object was in daylight at epoch
Visualization orbit readout
Latitude
Unknown
Longitude
Unknown
Altitude
Unknown
Speed
Unknown
Apparent Right ascension
Unknown
Apparent Declination
Unknown
Sunlit
N/A
Visualization observer readout
Local Sidereal Time
16:12:33
Azimuth
Unknown
Elevation
Unknown
Doppler factor
Unknown
Orbital elements
Apogee altitude
34,597.494 km
Perigee altitude
7,241.855 km
Semi-major axis
27,297.811 km
Eccentricity
0.50106
Inclination
20.7426°
RAAN
132.9157°
Arg. of periapsis
190.7777°
True anomaly
169.24024°
Mean anomaly
152.311°
Eccentric anomaly
161.44601°
Mean motion
0.48123 °/min
Orbital period
748.09 mins
BSTAR
0
Loading maneuver chart data...
Computing Atmospheric mass density...

Documentation

Showing up to 5 results
|